Date,TemperatureHighF,TemperatureAvgF,TemperatureLowF,DewpointHighF,DewpointAvgF,DewpointLowF,HumidityHigh,HumidityAvg,HumidityLow,PressureMaxIn,PressureMinIn,WindSpeedMaxMPH,WindSpeedAvgMPH,GustSpeedMaxMPH,PrecipitationSumIn
2013-3-1,37.7,35.0,32.1,34.0,32.0,25.0,94,88,74,0.00,0.00,11,3,0,0.18
2013-3-2,33.3,30.5,28.2,30.0,25.5,21.0,92,81,72,0.00,0.00,11,4,0,0.00
2013-3-3,32.8,29.5,27.0,27.0,21.2,18.0,86,71,63,0.00,0.00,11,4,0,0.00
2013-3-4,44.7,34.9,23.7,33.0,23.5,19.0,85,65,38,0.00,0.00,7,2,0,0.00
2013-3-5,42.0,39.1,31.0,40.0,34.8,29.0,95,85,62,0.00,0.00,22,4,0,1.09
2013-3-6,33.2,31.4,29.2,31.0,28.6,27.0,95,89,84,0.00,0.00,17,9,0,0.00
2013-3-7,43.2,34.8,31.6,33.0,29.5,26.0,91,81,64,0.00,0.00,11,3,0,0.09
2013-3-8,46.9,39.1,29.8,36.0,30.5,24.0,88,72,46,0.00,0.00,7,2,0,0.00
2013-3-9,59.7,46.9,33.3,42.0,33.3,28.0,87,62,39,0.00,0.00,11,3,0,0.00
2013-3-10,69.0,61.1,54.3,44.0,38.3,34.0,57,44,31,0.00,40.00,15,7,0,0.06
2013-3-11,61.2,50.7,39.6,54.0,45.6,32.0,95,83,54,0.00,0.00,16,7,0,2.08
2013-3-12,46.4,39.7,35.3,33.0,28.9,26.0,88,66,47,0.00,0.00,20,6,0,0.00
2013-3-13,35.4,31.0,28.1,32.0,23.6,17.0,89,74,59,0.00,0.00,25,11,0,0.00
2013-3-14,44.9,34.9,25.3,24.0,19.6,11.0,82,57,31,0.00,0.00,7,2,0,0.00
2013-3-15,54.1,43.1,33.4,45.0,33.7,25.0,89,71,53,0.00,0.00,6,3,0,0.00
2013-3-16,61.4,50.3,40.1,51.0,44.2,35.0,90,80,64,0.00,0.00,25,7,0,0.21
2013-3-17,41.6,17.0,37.3,39.0,-42.3,-99.9,92,37,82,0.00,0.00,9,-579,0,0.02
2013-3-18,42.3,0.4,42.3,34.0,-98.5,-99.9,72,1,72,0.00,0.00,22,-988,0,0.00
2013-3-19,46.1,19.2,31.9,34.0,-45.9,-99.9,72,19,33,0.00,0.00,25,-538,0,0.00
2013-3-20,38.8,16.0,27.0,22.0,-45.8,-99.9,56,23,43,0.00,0.00,27,-530,0,0.00
2013-3-21,34.0,11.6,24.4,16.0,-57.5,-99.9,60,18,46,0.00,0.00,16,-624,0,0.00
2013-3-22,47.8,15.2,34.4,21.0,-56.5,-99.9,54,15,34,0.00,0.00,7,-637,0,0.00
2013-3-23,58.9,19.4,45.6,29.0,-53.4,-99.9,48,14,32,0.00,0.00,6,-633,0,0.00
2013-3-24,-200.0,0.0,200.0,-99.9,-99.9,-99.9,0,0,100,0.00,40.00,0,-999,0,0.00
2013-3-25,35.8,6.4,34.5,34.0,-75.9,-99.9,91,16,89,0.00,0.00,13,-817,0,0.02
2013-3-26,40.6,7.7,39.1,33.0,-74.8,-99.9,76,13,64,0.00,0.00,13,-804,0,0.00
2013-3-27,45.0,15.8,41.1,32.0,-52.7,-99.9,69,21,50,30.00,0.00,12,-632,0,0.00
2013-3-28,52.2,19.2,34.3,31.0,-50.8,-99.9,60,18,44,31.43,30.00,11,-596,0,0.00
2013-3-29,59.0,20.2,48.5,34.0,-50.7,-99.9,58,16,38,31.42,31.42,10,-629,0,0.00
2013-3-30,63.2,23.6,50.5,39.0,-45.7,-99.9,59,17,38,31.42,31.42,15,-603,0,0.00
2013-3-31,59.8,11.4,54.4,49.0,-71.1,-99.9,83,13,58,31.42,31.42,12,-800,0,0.00